DateTimeUTC,F1_A11,F1_S11,BsB_S11,BsG_S11,BsR_S11,BbsB_S11,BbsG_S11,BbsR_S11,BaB_A11,BaG_A11,BaR_A11,Tu_S11,T_S11,Uu_S11,U_S11,P_S11,T1_A11
2021-05-27T10:00:00Z,00000200,20000000,,,,,,,0000.06,0000.48,0000.11,18.1,24.5,12.4,08.4,0678.7,30.9
2021-05-27T10:01:00Z,00000200,20000000,,,,,,,-000.28,-000.25,-000.21,18.1,24.5,12.3,08.3,0678.7,31.0
2021-05-27T10:02:00Z,00000200,20000000,,,,,,,0000.45,-000.21,0000.34,18.1,24.5,12.3,08.3,0678.7,30.9
2021-05-27T10:03:00Z,00000200,60000000,,,,,,,-000.25,-000.29,-000.29,18.1,24.5,12.3,08.3,0678.7,30.9
2021-05-27T10:04:00Z,00000200,40000000,0000.27,0000.21,0000.21,0000.25,0000.17,-000.00,0000.45,0000.85,0000.51,18.2,24.3,12.2,08.4,0679.6,31.0
2021-05-27T10:05:00Z,00000200,00000000,0000.60,-000.23,-000.03,-000.03,-000.02,-000.12,-000.34,-000.30,-000.43,18.2,24.3,12.2,08.4,0679.6,30.9
2021-05-27T10:06:00Z,00000200,00000000,-000.46,-000.00,0000.12,0000.04,-000.12,-000.04,0000.35,-000.10,0000.32,18.2,24.3,12.2,08.4,0679.6,30.9
2021-05-27T10:07:00Z,00000200,00000000,0000.11,0000.00,-000.05,0001.04,0000.01,0000.18,-000.09,0000.36,0000.21,18.3,24.3,12.2,08.4,0679.6,30.9
2021-05-27T10:08:00Z,00000200,00000000,0000.25,0000.27,-000.28,0000.46,0000.06,-000.16,0000.08,-000.01,-000.43,18.3,24.3,12.1,08.4,0679.7,30.9
2021-05-27T10:09:00Z,00000200,00000000,-000.03,0000.26,0000.02,0000.56,0000.21,-000.11,-000.12,0000.16,0000.21,18.3,24.3,12.2,08.4,0679.7,30.9
2021-05-27T10:10:00Z,00000200,00000000,-000.18,0000.41,-000.13,-000.07,-000.02,-000.11,0000.42,0000.02,0000.43,18.3,24.3,12.1,08.4,0679.7,31.0
2021-05-27T10:11:00Z,00000200,00000000,-000.33,0000.03,-000.14,-000.40,0000.14,-000.01,-000.43,0000.07,-000.21,18.3,24.3,12.3,08.5,0679.7,30.9
2021-05-27T10:12:00Z,00000200,00000000,-000.44,0000.13,-000.15,0001.11,0000.00,-000.04,0000.65,0000.13,0000.02,18.3,24.3,12.2,08.4,0679.7,30.9
2021-05-27T10:13:00Z,00000200,00000000,0000.49,-000.01,0000.14,0000.34,0000.00,0000.07,-000.34,0000.02,0000.23,18.3,24.3,12.1,08.4,0679.8,30.9
2021-05-27T10:14:00Z,00000200,00000000,0000.33,0000.30,-000.14,0000.45,0000.34,-000.17,0000.17,0000.01,-000.28,18.3,24.3,12.2,08.4,0679.8,30.9
2021-05-27T10:15:00Z,00000200,00000000,0000.18,0000.20,-000.06,0000.29,0000.14,-000.26,-000.28,-000.00,0000.48,18.3,24.3,12.3,08.5,0679.8,30.9
2021-05-27T10:16:00Z,00000200,00000000,0000.60,-000.02,0000.08,0000.30,0000.13,-000.03,0000.63,0000.37,0000.26,18.3,24.3,12.2,08.5,0679.8,31.0
2021-05-27T10:17:00Z,00000200,00000000,0001.02,-000.12,0000.10,0000.10,0000.19,0000.06,0000.04,0000.16,-000.11,18.3,24.3,12.1,08.4,0679.8,30.9
2021-05-27T10:18:00Z,00000200,00000000,0000.23,0000.25,0000.13,0000.31,-000.20,-000.05,0000.23,-000.38,0000.22,18.4,24.3,12.1,08.4,0679.8,30.9
2021-05-27T10:19:00Z,00000200,00000000,0000.29,0000.11,-000.04,0000.97,0000.01,-000.06,0000.34,0000.74,-000.13,18.4,24.3,12.1,08.4,0679.9,30.9
2021-05-27T10:20:00Z,00000200,00000000,0000.27,0000.12,0000.00,0000.53,-000.01,0000.11,-000.34,-000.15,0000.09,18.4,24.3,12.0,08.3,0679.9,30.9
2021-05-27T10:21:00Z,00000200,00000000,0000.01,-000.02,-000.18,0000.44,0000.17,0000.19,-000.23,-000.27,-000.29,18.4,24.3,11.9,08.2,0679.9,30.9
2021-05-27T10:22:00Z,00000200,00000000,-000.54,0000.13,0000.11,0000.00,0000.12,-000.05,-000.19,-000.30,-000.18,18.4,24.3,11.7,08.1,0679.9,30.9
2021-05-27T10:23:00Z,00000200,00000000,0000.25,-000.21,-000.36,0000.18,-000.20,0000.03,-000.27,-000.34,-000.25,18.4,24.3,11.5,08.0,0679.9,31.0
2021-05-27T10:24:00Z,00000200,00000000,-000.03,-000.13,-000.07,0000.64,-000.09,0000.06,-000.17,-000.12,-000.03,18.4,24.3,11.3,07.9,0679.9,31.0
2021-05-27T10:25:00Z,00000200,00000000,-000.09,-000.07,-000.07,-000.17,0000.13,0000.20,-000.33,0000.04,-000.40,18.4,24.3,11.2,07.8,0679.9,30.9
2021-05-27T10:26:00Z,00000200,00000000,-000.38,-000.08,-000.00,-000.39,-000.02,-000.04,0000.35,0000.14,0000.07,18.4,24.4,11.1,07.7,0679.9,31.0
2021-05-27T10:27:00Z,00000200,00000000,0000.02,0000.19,-000.02,0000.88,0000.49,0000.05,-000.01,-000.15,0000.44,18.4,24.4,11.0,07.7,0679.9,31.0
2021-05-27T10:28:00Z,00000200,00000000,0000.96,-000.08,-000.25,0000.70,0000.24,-000.42,-000.30,-000.32,-000.36,18.5,24.4,11.0,07.6,0679.9,31.0
2021-05-27T10:29:00Z,00000200,00000000,0000.29,0000.13,0000.09,0000.17,-000.22,-000.07,0000.44,0000.33,-000.06,18.4,24.4,11.0,07.7,0679.9,31.0
2021-05-27T10:30:00Z,00000200,00000000,0000.05,0000.08,-000.20,0000.16,0000.18,-000.40,-000.23,-000.11,0000.05,18.4,24.4,10.9,07.6,0680.0,31.0
2021-05-27T10:31:00Z,00000200,00000000,-000.84,0000.40,0000.07,0000.36,-000.04,-000.19,0000.15,0000.27,0000.10,18.5,24.4,10.9,07.6,0679.9,31.0
2021-05-27T10:32:00Z,00000200,00000000,0000.38,0000.14,-000.43,0000.23,-000.14,-000.10,0000.08,-000.32,-000.05,18.4,24.4,10.9,07.6,0679.9,30.9
2021-05-27T10:33:00Z,00000200,00000000,0000.38,0000.09,0000.02,0000.18,0000.06,-000.18,-000.09,0000.26,-000.18,18.5,24.4,10.8,07.5,0679.9,30.9
2021-05-27T10:34:00Z,00000200,00000000,0000.57,-000.03,0000.07,0000.28,-000.03,0000.01,0000.05,0000.21,0000.25,18.5,24.4,10.8,07.5,0680.0,31.0
2021-05-27T10:35:00Z,00000200,00000000,0000.07,0000.24,-000.07,0000.31,-000.07,-000.25,-000.14,-000.82,-000.32,18.5,24.4,10.7,07.5,0680.0,31.0
2021-05-27T10:36:00Z,00000200,00000000,-000.12,0000.02,-000.40,0000.34,-000.22,-000.12,0000.16,0000.78,0000.01,18.5,24.4,10.6,07.4,0680.0,31.0
2021-05-27T10:37:00Z,00000200,00000000,0000.35,0000.04,-000.23,0000.19,-000.21,0000.17,-000.15,-000.22,0000.26,18.5,24.4,10.8,07.5,0680.0,31.0
2021-05-27T10:38:00Z,00000200,00000000,0000.17,0000.16,-000.20,0000.10,0000.09,0000.01,0000.02,-000.01,-000.24,18.5,24.4,10.6,07.3,0680.0,31.0
2021-05-27T10:39:00Z,00000200,00000000,0000.37,0000.19,0000.02,0000.17,0000.18,-000.13,-000.44,-000.06,0000.06,18.5,24.4,10.6,07.4,0680.0,31.0
2021-05-27T10:40:00Z,00000200,00000000,0000.29,-000.05,-000.10,0000.16,0000.02,-000.07,0000.72,0000.02,0000.02,18.5,24.4,10.5,07.3,0679.9,31.0
2021-05-27T10:41:00Z,00000200,00000000,0000.23,0000.07,-000.07,0000.29,-000.10,0000.07,-000.54,-000.50,-000.21,18.5,24.4,10.5,07.3,0680.0,31.0
2021-05-27T10:42:00Z,00000200,00000000,0000.22,-000.20,-000.38,0000.89,0000.07,0000.06,0000.07,-000.15,-000.07,18.5,24.4,10.3,07.2,0679.9,31.0
2021-05-27T10:43:00Z,00000200,00000000,0000.05,0000.28,-000.24,0000.26,0000.11,-000.06,-000.34,0000.24,0000.21,18.5,24.4,10.4,07.2,0679.9,31.0
2021-05-27T10:44:00Z,00000200,00000000,-000.18,-000.15,-000.35,0000.71,-000.03,-000.06,0000.26,0000.09,-000.08,18.5,24.4,10.3,07.2,0679.9,31.0
2021-05-27T10:45:00Z,00000200,00000000,0000.15,0000.23,-000.04,0000.15,0000.03,-000.12,0000.08,0000.34,-000.02,18.5,24.5,10.4,07.2,0679.9,31.0
2021-05-27T10:46:00Z,00000200,00000000,0000.04,-000.11,-000.03,0000.09,-000.11,-000.14,-000.07,-000.42,-000.24,18.5,24.5,10.3,07.2,0679.9,31.0
2021-05-27T10:47:00Z,00000200,00000000,-000.15,0000.22,0000.18,0000.42,0000.36,-000.04,0000.22,0000.10,0000.14,18.5,24.5,10.2,07.1,0679.9,31.0
2021-05-27T10:48:00Z,00000200,00000000,0000.14,0000.09,-000.18,-000.12,0000.04,0000.21,0000.14,0000.09,-000.20,18.5,24.5,10.2,07.1,0679.9,31.0
2021-05-27T10:49:00Z,00000200,00000000,0000.03,0000.02,0000.08,0000.56,0000.08,0000.14,-000.34,-000.11,0000.09,18.5,24.5,10.1,07.0,0679.9,31.0
2021-05-27T10:50:00Z,00000200,00000000,0000.32,0000.24,-000.31,0000.64,0000.08,-000.46,0000.14,0000.24,0000.23,18.6,24.5,10.1,07.1,0679.9,31.0
2021-05-27T10:51:00Z,00000200,00000000,0000.01,-000.04,-000.06,0000.54,-000.17,0000.16,0000.01,-000.17,-000.12,18.5,24.5,10.2,07.1,0679.9,31.0
2021-05-27T10:52:00Z,00000200,00000000,0000.33,-000.01,-000.22,0000.91,0000.22,-000.09,0000.06,0000.38,0000.39,18.5,24.5,10.1,07.0,0679.9,31.0
2021-05-27T10:53:00Z,00000200,00000000,-000.04,-000.12,-000.21,0000.30,0000.20,-000.06,0000.32,-000.16,0000.15,18.6,24.5,10.1,07.0,0679.9,31.0
2021-05-27T10:54:00Z,00000200,00000000,-000.11,0000.25,0000.01,0000.82,-000.13,-000.21,-000.40,-000.00,-000.30,18.6,24.5,10.3,07.2,0679.9,31.0
2021-05-27T10:55:00Z,00000200,00000000,-000.40,-000.03,-000.35,0000.44,0000.46,-000.41,0000.22,0000.32,0000.18,18.6,24.5,10.1,07.0,0679.9,31.0
2021-05-27T10:56:00Z,00000200,00000000,0000.08,-000.09,-000.03,0000.36,0000.15,0000.03,0000.01,-000.41,-000.35,18.6,24.5,10.2,07.1,0679.9,31.0
2021-05-27T10:57:00Z,00000200,40000000,,,,,,,0000.45,0000.55,0000.65,18.6,24.5,10.6,07.4,0680.0,31.0
2021-05-27T10:58:00Z,00000200,60000000,,,,,,,-000.41,-000.31,-000.18,18.4,24.6,10.4,07.1,0679.0,31.0
2021-05-27T10:59:00Z,00000200,20000000,,,,,,,-000.01,0000.17,-000.24,18.4,24.7,10.3,07.0,0678.9,31.0
